Station Historical Data
Daily Summary for October 19, 2011 Units:  Metric    English   Both
« Previous Day
Next Day »
Daily Weekly Monthly Yearly Custom
  High: Low: Average:
Temperature: 8.7 °C 6.7 °C 7.3 °C
Dew Point: 7.3 °C 4.7 °C 5.7 °C
Humidity: 95% 77% 90%
Wind Speed: 35.4km/h 4.8km/h 10.9km/h
Wind Gust: 35.4km/h - -
Wind- - WNW
Pressure: 1008.7 hPa 1001.9 hPa -
Precipitation: 0.51 mm    
Historical Graphs
 
 
Tabular Data for October 19, 2011
Time Temperature Dew Point Pressure Wind Wind Speed Wind Gust Humidity Rainfall Rate (Hourly) Conditions
00:00 8.2 °C 7.3 °C 1003.3 hPa NW 11.3 km/h 24.1 km/h 94% 0 mm
00:01 8.2 °C 7.3 °C 1003.3 hPa WNW 11.3 km/h 24.1 km/h 94% 0 mm
00:06 8.2 °C 7.3 °C 1003.3 hPa WNW 8 km/h 22.5 km/h 94% 0 mm
00:11 8.2 °C 7.1 °C 1003.6 hPa NW 12.9 km/h 19.3 km/h 93% 0 mm
00:16 8.2 °C 7.1 °C 1003.6 hPa WNW 16.1 km/h 25.7 km/h 93% 0 mm
00:21 8.1 °C 7.1 °C 1003.6 hPa NW 19.3 km/h 25.7 km/h 93% 0 mm
00:26 8.1 °C 7 °C 1003.3 hPa WNW 11.3 km/h 16.1 km/h 93% 0 mm
00:31 8.1 °C 7 °C 1002.9 hPa NW 12.9 km/h 19.3 km/h 93% 0 mm
00:36 8 °C 6.9 °C 1002.6 hPa NNW 11.3 km/h 19.3 km/h 93% 0 mm
00:41 7.9 °C 6.8 °C 1002.6 hPa NNW 9.7 km/h 24.1 km/h 93% 0 mm
00:46 7.8 °C 6.8 °C 1002.9 hPa NW 12.9 km/h 22.5 km/h 93% 0 mm
00:51 7.8 °C 6.7 °C 1002.9 hPa WNW 8 km/h 19.3 km/h 93% 0 mm
00:56 7.8 °C 6.7 °C 1002.9 hPa NW 17.7 km/h 17.7 km/h 93% 0 mm
01:01 7.8 °C 6.7 °C 1002.6 hPa WNW 17.7 km/h 20.9 km/h 93% 0 mm
01:06 7.7 °C 6.7 °C 1002.9 hPa NNW 14.5 km/h 19.3 km/h 93% 0 mm
01:11 7.7 °C 6.7 °C 1003.3 hPa WNW 6.4 km/h 17.7 km/h 93% 0 mm
01:16 7.7 °C 6.7 °C 1003.3 hPa NNW 8 km/h 19.3 km/h 93% 0 mm
01:21 7.7 °C 6.7 °C 1002.9 hPa NW 12.9 km/h 16.1 km/h 93% 0 mm
01:26 7.7 °C 6.7 °C 1003.3 hPa NW 4.8 km/h 16.1 km/h 93% 0 mm
01:31 7.7 °C 6.7 °C 1002.9 hPa NNW 6.4 km/h 9.7 km/h 93% 0 mm
01:36 7.7 °C 6.5 °C 1002.9 hPa WNW 8 km/h 20.9 km/h 92% 0 mm
01:41 7.7 °C 6.5 °C 1002.6 hPa NW 14.5 km/h 17.7 km/h 92% 0 mm
01:46 7.7 °C 6.5 °C 1002.6 hPa NW 6.4 km/h 20.9 km/h 92% 0 mm
01:51 7.7 °C 6.5 °C 1002.9 hPa NNW 4.8 km/h 12.9 km/h 92% 0 mm
01:56 7.7 °C 6.5 °C 1003.3 hPa NW 8 km/h 11.3 km/h 92% 0 mm
02:02 7.8 °C 6.6 °C 1002.9 hPa WNW 6.4 km/h 12.9 km/h 92% 0 mm
02:07 7.8 °C 6.6 °C 1002.9 hPa NNW 19.3 km/h 19.3 km/h 92% 0 mm
02:12 7.7 °C 6.7 °C 1002.9 hPa NNW 8 km/h 12.9 km/h 93% 0 mm
02:17 7.7 °C 6.7 °C 1002.9 hPa WNW 14.5 km/h 19.3 km/h 93% 0 mm
02:22 7.7 °C 6.6 °C 1002.9 hPa NW 19.3 km/h 22.5 km/h 93% 0 mm
02:27 7.6 °C 6.7 °C 1002.9 hPa NW 11.3 km/h 14.5 km/h 94% 0 mm
02:32 7.6 °C 6.7 °C 1002.9 hPa WNW 12.9 km/h 20.9 km/h 94% 0 mm
02:37 7.6 °C 6.7 °C 1002.9 hPa NNW 6.4 km/h 12.9 km/h 94% 0 mm
02:42 7.6 °C 6.7 °C 1002.9 hPa NW 11.3 km/h 20.9 km/h 94% 0 mm
02:47 7.6 °C 6.7 °C 1002.6 hPa WNW 11.3 km/h 19.3 km/h 94% 0 mm
02:52 7.5 °C 6.6 °C 1002.6 hPa WNW 12.9 km/h 12.9 km/h 94% 0 mm
02:57 7.4 °C 6.5 °C 1002.6 hPa North 11.3 km/h 19.3 km/h 94% 0 mm
03:02 7.4 °C 6.2 °C 1002.6 hPa WNW 11.3 km/h 24.1 km/h 92% 0 mm
03:07 7.4 °C 6 °C 1002.9 hPa NW 16.1 km/h 30.6 km/h 91% 0 mm
03:12 7.4 °C 5.8 °C 1002.9 hPa NNW 14.5 km/h 19.3 km/h 90% 0 mm
03:17 7.4 °C 5.8 °C 1002.6 hPa WNW 12.9 km/h 17.7 km/h 90% 0 mm
03:22 7.3 °C 5.8 °C 1002.6 hPa NW 16.1 km/h 19.3 km/h 90% 0 mm
03:27 7.3 °C 5.6 °C 1002.6 hPa WNW 16.1 km/h 24.1 km/h 89% 0 mm
03:32 7.3 °C 5.4 °C 1002.6 hPa West 9.7 km/h 20.9 km/h 88% 0 mm
03:37 7.3 °C 5.4 °C 1002.6 hPa NW 12.9 km/h 16.1 km/h 88% 0 mm
03:42 7.3 °C 5.3 °C 1002.6 hPa NNW 11.3 km/h 27.4 km/h 87% 0 mm
03:47 7.2 °C 5.2 °C 1002.6 hPa NNW 20.9 km/h 25.7 km/h 87% 0 mm
03:52 7.2 °C 5.2 °C 1002.6 hPa NNW 11.3 km/h 20.9 km/h 87% 0 mm
03:57 7.2 °C 5.2 °C 1002.6 hPa NW 9.7 km/h 19.3 km/h 87% 0 mm
04:02 7.2 °C 5.3 °C 1002.3 hPa NW 14.5 km/h 19.3 km/h 88% 0 mm
04:07 7.2 °C 5.3 °C 1002.6 hPa NW 12.9 km/h 17.7 km/h 88% 0 mm
04:12 7.2 °C 5.4 °C 1002.6 hPa WNW 16.1 km/h 24.1 km/h 88% 0 mm
04:17 7.2 °C 5.3 °C 1002.3 hPa NNW 9.7 km/h 17.7 km/h 88% 0 mm
04:22 7.2 °C 5.3 °C 1002.3 hPa NW 9.7 km/h 17.7 km/h 88% 0 mm
04:27 7.1 °C 5.4 °C 1002.3 hPa WNW 9.7 km/h 19.3 km/h 89% 0 mm
04:32 7.1 °C 5.4 °C 1002.3 hPa NW 14.5 km/h 14.5 km/h 89% 0 mm
04:37 7.1 °C 5.4 °C 1002.3 hPa NW 4.8 km/h 16.1 km/h 89% 0 mm
04:42 7.1 °C 5.6 °C 1002.3 hPa NW 12.9 km/h 17.7 km/h 90% 0 mm
04:47 7 °C 5.4 °C 1002.3 hPa NW 8 km/h 14.5 km/h 90% 0 mm
04:52 6.9 °C 5.6 °C 1002.3 hPa NW 6.4 km/h 11.3 km/h 91% 0 mm
04:57 6.9 °C 5.7 °C 1002.3 hPa NW 8 km/h 9.7 km/h 92% 0 mm
05:02 6.9 °C 5.7 °C 1001.9 hPa West 8 km/h 12.9 km/h 92% 0 mm
05:07 6.9 °C 5.6 °C 1001.9 hPa WNW 8 km/h 20.9 km/h 91% 0 mm
05:12 6.9 °C 5.5 °C 1001.9 hPa West 8 km/h 14.5 km/h 91% 0 mm
05:17 6.9 °C 5.5 °C 1001.9 hPa NW 8 km/h 14.5 km/h 91% 0 mm
05:22 6.9 °C 5.5 °C 1001.9 hPa West 6.4 km/h 17.7 km/h 91% 0 mm
05:27 6.9 °C 5.5 °C 1001.9 hPa NW 8 km/h 19.3 km/h 91% 0 mm
05:32 6.9 °C 5.5 °C 1001.9 hPa WNW 11.3 km/h 17.7 km/h 91% 0 mm
05:37 6.9 °C 5.5 °C 1001.9 hPa WNW 14.5 km/h 19.3 km/h 91% 0 mm
05:42 6.9 °C 5.5 °C 1001.9 hPa WNW 8 km/h 11.3 km/h 91% 0 mm
05:47 6.9 °C 5.4 °C 1001.9 hPa WNW 8 km/h 19.3 km/h 90% 0 mm
05:52 6.9 °C 5.4 °C 1002.3 hPa NW 8 km/h 14.5 km/h 90% 0 mm
05:57 6.9 °C 5.4 °C 1002.3 hPa WNW 11.3 km/h 12.9 km/h 90% 0 mm
06:02 6.9 °C 5.4 °C 1002.3 hPa WNW 6.4 km/h 20.9 km/h 90% 0 mm
06:08 6.9 °C 5.4 °C 1002.3 hPa WNW 12.9 km/h 12.9 km/h 90% 0 mm
06:13 6.8 °C 5.4 °C 1002.3 hPa NW 16.1 km/h 20.9 km/h 91% 0 mm
06:18 6.8 °C 5.6 °C 1002.6 hPa WNW 11.3 km/h 19.3 km/h 92% 0 mm
06:23 6.7 °C 5.5 °C 1002.6 hPa WNW 11.3 km/h 14.5 km/h 92% 0 mm
06:28 6.7 °C 5.4 °C 1002.6 hPa WNW 6.4 km/h 14.5 km/h 91% 0 mm
06:33 6.7 °C 5.5 °C 1002.6 hPa West 9.7 km/h 11.3 km/h 92% 0 mm
06:38 6.7 °C 5.4 °C 1002.6 hPa West 8 km/h 11.3 km/h 91% 0 mm
06:43 6.7 °C 5.4 °C 1002.6 hPa WNW 4.8 km/h 12.9 km/h 91% 0 mm
06:48 6.7 °C 5.4 °C 1002.6 hPa WNW 9.7 km/h 11.3 km/h 91% 0 mm
06:53 6.7 °C 5.4 °C 1002.6 hPa WNW 8 km/h 12.9 km/h 91% 0 mm
06:58 6.7 °C 5.4 °C 1002.6 hPa WNW 8 km/h 11.3 km/h 91% 0 mm
07:03 6.7 °C 5.5 °C 1002.6 hPa WNW 11.3 km/h 12.9 km/h 92% 0 mm
07:08 6.7 °C 5.5 °C 1002.6 hPa West 12.9 km/h 12.9 km/h 92% 0 mm
07:13 6.7 °C 5.5 °C 1002.6 hPa WNW 9.7 km/h 14.5 km/h 92% 0 mm
07:18 6.7 °C 5.5 °C 1002.6 hPa WNW 14.5 km/h 17.7 km/h 92% 0 mm
07:23 6.7 °C 5.5 °C 1002.6 hPa WNW 11.3 km/h 16.1 km/h 92% 0 mm
07:28 6.7 °C 5.4 °C 1002.6 hPa West 4.8 km/h 17.7 km/h 91% 0 mm
07:33 6.8 °C 5.6 °C 1002.6 hPa NW 11.3 km/h 14.5 km/h 92% 0 mm
07:38 6.8 °C 5.4 °C 1002.6 hPa WNW 6.4 km/h 12.9 km/h 91% 0 mm
07:43 6.8 °C 5.6 °C 1002.6 hPa West 11.3 km/h 12.9 km/h 92% 0 mm
07:48 6.8 °C 5.4 °C 1002.3 hPa West 8 km/h 11.3 km/h 91% 0 mm
07:53 6.8 °C 5.4 °C 1002.3 hPa WNW 12.9 km/h 14.5 km/h 91% 0 mm
07:58 6.8 °C 5.4 °C 1002.3 hPa WNW 9.7 km/h 16.1 km/h 91% 0 mm
08:03 6.9 °C 5.5 °C 1002.3 hPa WNW 9.7 km/h 12.9 km/h 91% 0 mm
08:08 6.9 °C 5.4 °C 1002.6 hPa WNW 6.4 km/h 11.3 km/h 90% 0 mm
08:13 7 °C 5.4 °C 1002.6 hPa WNW 12.9 km/h 17.7 km/h 90% 0 mm
08:18 7 °C 5.4 °C 1002.3 hPa West 9.7 km/h 14.5 km/h 90% 0 mm
08:23 7.1 °C 5.4 °C 1002.6 hPa WNW 4.8 km/h 16.1 km/h 89% 0 mm
08:28 7.1 °C 5.6 °C 1002.6 hPa WNW 8 km/h 12.9 km/h 90% 0 mm
08:33 7.1 °C 5.6 °C 1002.6 hPa WNW 8 km/h 16.1 km/h 90% 0 mm
08:38 7.1 °C 5.6 °C 1002.6 hPa WNW 4.8 km/h 11.3 km/h 90% 0 mm
08:43 7.1 °C 5.6 °C 1002.6 hPa WNW 9.7 km/h 12.9 km/h 90% 0 mm
08:48 7.1 °C 5.6 °C 1002.6 hPa WNW 9.7 km/h 19.3 km/h 90% 0 mm
08:53 7 °C 5.4 °C 1002.6 hPa WNW 9.7 km/h 14.5 km/h 90% 0 mm
08:58 6.9 °C 5.6 °C 1002.9 hPa WNW 8 km/h 14.5 km/h 91% 0 mm
09:03 6.9 °C 5.5 °C 1002.9 hPa WSW 6.4 km/h 20.9 km/h 91% 0 mm
09:08 6.9 °C 5.4 °C 1002.6 hPa WNW 9.7 km/h 16.1 km/h 90% 0 mm
09:13 6.9 °C 5.4 °C 1002.6 hPa West 9.7 km/h 19.3 km/h 90% 0 mm
09:18 6.9 °C 5.4 °C 1002.9 hPa WNW 12.9 km/h 16.1 km/h 90% 0 mm
09:23 6.9 °C 5.4 °C 1002.9 hPa WNW 12.9 km/h 16.1 km/h 90% 0 mm
09:28 6.9 °C 5.3 °C 1002.9 hPa WNW 8 km/h 22.5 km/h 89% 0 mm
09:33 6.9 °C 5.3 °C 1002.9 hPa WNW 8 km/h 17.7 km/h 89% 0 mm
09:39 6.9 °C 5.3 °C 1002.9 hPa West 12.9 km/h 16.1 km/h 89% 0 mm
09:44 7 °C 5.2 °C 1002.9 hPa WSW 9.7 km/h 19.3 km/h 88% 0 mm
09:49 7 °C 5.2 °C 1002.9 hPa NW 6.4 km/h 20.9 km/h 88% 0 mm
09:54 7.1 °C 5.2 °C 1002.9 hPa WNW 11.3 km/h 14.5 km/h 88% 0 mm
09:59 7.1 °C 5.3 °C 1002.9 hPa West 8 km/h 11.3 km/h 88% 0 mm
10:04 7.1 °C 5.3 °C 1002.9 hPa West 8 km/h 16.1 km/h 88% 0 mm
10:09 7.2 °C 5.2 °C 1002.9 hPa WSW 16.1 km/h 16.1 km/h 87% 0 mm
10:14 7.3 °C 5.4 °C 1002.9 hPa WNW 14.5 km/h 16.1 km/h 88% 0 mm
10:19 7.3 °C 5.2 °C 1002.9 hPa NW 14.5 km/h 17.7 km/h 86% 0 mm
10:24 7.5 °C 5.3 °C 1002.9 hPa NW 8 km/h 16.1 km/h 86% 0 mm
10:29 7.6 °C 5.2 °C 1002.9 hPa WSW 17.7 km/h 20.9 km/h 85% 0 mm
10:34 7.6 °C 5.3 °C 1002.9 hPa WNW 8 km/h 20.9 km/h 85% 0 mm
10:39 7.7 °C 5.4 °C 1002.9 hPa WNW 11.3 km/h 14.5 km/h 85% 0 mm
10:44 7.8 °C 5.3 °C 1002.9 hPa WNW 12.9 km/h 20.9 km/h 84% 0 mm
10:49 8 °C 5.3 °C 1002.9 hPa WNW 12.9 km/h 17.7 km/h 83% 0 mm
10:54 8.1 °C 5.5 °C 1002.9 hPa NW 9.7 km/h 17.7 km/h 84% 0 mm
10:59 8.1 °C 5.6 °C 1002.9 hPa WNW 8 km/h 12.9 km/h 84% 0 mm
11:04 8.2 °C 5.7 °C 1002.9 hPa West 9.7 km/h 20.9 km/h 84% 0 mm
11:09 8.2 °C 5.7 °C 1002.9 hPa WNW 17.7 km/h 25.7 km/h 84% 0 mm
11:14 8.3 °C 5.4 °C 1002.9 hPa NW 16.1 km/h 22.5 km/h 82% 0 mm
11:19 8.2 °C 5.1 °C 1003.3 hPa West 12.9 km/h 24.1 km/h 81% 0 mm
11:24 8.3 °C 5.6 °C 1003.3 hPa WNW 14.5 km/h 14.5 km/h 83% 0 mm
11:29 8.4 °C 5.7 °C 1003.3 hPa West 19.3 km/h 19.3 km/h 83% 0 mm
11:34 8.4 °C 5.2 °C 1003.3 hPa WNW 16.1 km/h 24.1 km/h 80% 0 mm
11:39 8.6 °C 5.7 °C 1003.3 hPa WNW 6.4 km/h 16.1 km/h 82% 0 mm
11:44 8.7 °C 5.2 °C 1003.3 hPa WNW 12.9 km/h 27.4 km/h 79% 0 mm
11:49 8.7 °C 4.9 °C 1003.3 hPa WNW 35.4 km/h 35.4 km/h 77% 0 mm
11:54 8.6 °C 5.4 °C 1003.3 hPa WNW 24.1 km/h 24.1 km/h 80% 0 mm
11:59 8.7 °C 5.3 °C 1003.3 hPa West 9.7 km/h 16.1 km/h 79% 0 mm
12:04 8.7 °C 4.9 °C 1003.3 hPa West 19.3 km/h 20.9 km/h 77% 0 mm
12:09 8.5 °C 4.9 °C 1003.6 hPa WNW 11.3 km/h 25.7 km/h 78% 0 mm
12:14 8.3 °C 4.9 °C 1003.6 hPa West 12.9 km/h 22.5 km/h 79% 0 mm
12:19 8.2 °C 4.7 °C 1003.6 hPa West 9.7 km/h 24.1 km/h 79% 0 mm
12:24 8.2 °C 4.9 °C 1003.6 hPa West 16.1 km/h 20.9 km/h 80% 0 mm
12:29 8.2 °C 5.1 °C 1003.3 hPa WNW 16.1 km/h 19.3 km/h 81% 0 mm
12:34 8.2 °C 5.1 °C 1003.3 hPa West 4.8 km/h 14.5 km/h 81% 0 mm
12:38 8.2 °C 5.2 °C 1003.3 hPa West 9.7 km/h 20.9 km/h 81% 0 mm
12:43 8.3 °C 5.2 °C 1003.6 hPa WNW 14.5 km/h 20.9 km/h 81% 0 mm
12:48 8.2 °C 5.2 °C 1003.6 hPa West 11.3 km/h 19.3 km/h 81% 0 mm
12:53 8.2 °C 5.1 °C 1003.6 hPa West 16.1 km/h 19.3 km/h 81% 0 mm
12:58 8.1 °C 5.2 °C 1003.6 hPa WSW 9.7 km/h 19.3 km/h 82% 0 mm
13:03 8.2 °C 5.1 °C 1003.6 hPa West 8 km/h 16.1 km/h 81% 0 mm
13:08 8.2 °C 5.1 °C 1003.6 hPa West 8 km/h 20.9 km/h 81% 0 mm
13:13 8.2 °C 5.3 °C 1003.6 hPa WSW 11.3 km/h 19.3 km/h 82% 0 mm
13:18 8.2 °C 5.3 °C 1003.6 hPa WNW 8 km/h 17.7 km/h 82% 0 mm
13:24 8.1 °C 5.2 °C 1003.6 hPa WNW 9.7 km/h 19.3 km/h 82% 0 mm
13:29 8.1 °C 5.2 °C 1003.6 hPa WNW 19.3 km/h 24.1 km/h 82% 0 mm
13:34 7.9 °C 5.1 °C 1003.6 hPa West 8 km/h 29 km/h 82% 0 mm
13:39 7.8 °C 5.1 °C 1003.6 hPa West 14.5 km/h 29 km/h 83% 0 mm
13:44 7.8 °C 5.1 °C 1003.6 hPa West 22.5 km/h 29 km/h 83% 0 mm
13:49 7.8 °C 5.3 °C 1003.6 hPa WSW 17.7 km/h 22.5 km/h 84% 0 mm
13:54 7.9 °C 5.6 °C 1003.3 hPa NW 12.9 km/h 22.5 km/h 85% 0 mm
13:59 7.9 °C 5.4 °C 1003.3 hPa WNW 16.1 km/h 19.3 km/h 84% 0 mm
14:04 7.8 °C 5.3 °C 1003.6 hPa West 12.9 km/h 20.9 km/h 84% 0 mm
14:09 7.8 °C 5.4 °C 1003.6 hPa WNW 8 km/h 16.1 km/h 85% 0 mm
14:14 7.7 °C 5.4 °C 1003.6 hPa WSW 9.7 km/h 22.5 km/h 85% 0 mm
14:19 7.7 °C 5.4 °C 1003.6 hPa WNW 12.9 km/h 17.7 km/h 85% 0 mm
14:24 7.7 °C 5.3 °C 1003.6 hPa WNW 20.9 km/h 20.9 km/h 85% 0 mm
14:29 7.6 °C 5.4 °C 1003.6 hPa West 14.5 km/h 19.3 km/h 86% 0 mm
14:34 7.6 °C 5.4 °C 1003.6 hPa West 11.3 km/h 22.5 km/h 86% 0 mm
14:39 7.5 °C 5.7 °C 1003.6 hPa SW 8 km/h 22.5 km/h 88% 0 mm
14:44 7.7 °C 5.7 °C 1003.6 hPa West 11.3 km/h 25.7 km/h 87% 0 mm
14:49 7.7 °C 5.8 °C 1003.6 hPa WNW 11.3 km/h 16.1 km/h 88% 0 mm
14:54 7.7 °C 5.8 °C 1003.6 hPa WNW 14.5 km/h 17.7 km/h 88% 0 mm
14:59 7.6 °C 5.7 °C 1003.6 hPa WNW 8 km/h 12.9 km/h 88% 0 mm
15:04 7.4 °C 5.7 °C 1003.6 hPa WNW 16.1 km/h 20.9 km/h 89% 0 mm
15:09 7.3 °C 5.7 °C 1003.6 hPa West 11.3 km/h 24.1 km/h 90% 0 mm
15:14 7.3 °C 5.6 °C 1003.6 hPa West 11.3 km/h 32.2 km/h 89% 0 mm
15:19 7.4 °C 5.8 °C 1003.6 hPa WNW 11.3 km/h 19.3 km/h 90% 0 mm
15:24 7.4 °C 5.7 °C 1003.9 hPa WNW 12.9 km/h 25.7 km/h 89% 0 mm
15:29 7.5 °C 5.9 °C 1003.9 hPa West 9.7 km/h 16.1 km/h 90% 0 mm
15:34 7.4 °C 5.7 °C 1003.9 hPa WSW 11.3 km/h 17.7 km/h 89% 0 mm
15:39 7.3 °C 5.7 °C 1003.9 hPa West 17.7 km/h 20.9 km/h 89% 0 mm
15:44 7.3 °C 5.6 °C 1003.9 hPa West 6.4 km/h 19.3 km/h 89% 0 mm
15:49 7.3 °C 5.6 °C 1003.9 hPa WNW 19.3 km/h 19.3 km/h 89% 0 mm
15:54 7.3 °C 5.6 °C 1004.3 hPa WNW 17.7 km/h 17.7 km/h 89% 0 mm
15:59 7.2 °C 5.6 °C 1004.3 hPa West 11.3 km/h 19.3 km/h 89% 0 mm
16:04 7.3 °C 5.4 °C 1004.3 hPa West 11.3 km/h 20.9 km/h 88% 0 mm
16:09 7.3 °C 5.4 °C 1004.6 hPa WNW 9.7 km/h 19.3 km/h 88% 0 mm
16:14 7.3 °C 5.4 °C 1004.6 hPa WNW 14.5 km/h 17.7 km/h 88% 0 mm
16:19 7.3 °C 5.4 °C 1004.6 hPa WNW 12.9 km/h 16.1 km/h 88% 0 mm
16:25 7.3 °C 5.5 °C 1004.6 hPa WNW 14.5 km/h 17.7 km/h 88% 0 mm
16:30 7.3 °C 5.6 °C 1004.6 hPa WSW 11.3 km/h 19.3 km/h 89% 0 mm
16:35 7.2 °C 5.7 °C 1004.6 hPa West 6.4 km/h 12.9 km/h 90% 0 mm
16:40 7.3 °C 5.7 °C 1004.6 hPa WNW 8 km/h 19.3 km/h 90% 0 mm
16:45 7.3 °C 5.8 °C 1004.6 hPa WNW 4.8 km/h 17.7 km/h 90% 0 mm
16:50 7.4 °C 5.7 °C 1004.6 hPa WSW 9.7 km/h 20.9 km/h 89% 0 mm
16:55 7.5 °C 5.7 °C 1004.6 hPa West 6.4 km/h 16.1 km/h 88% 0 mm
17:00 7.6 °C 5.8 °C 1004.6 hPa West 8 km/h 12.9 km/h 89% 0 mm
17:05 7.6 °C 5.9 °C 1005 hPa WNW 12.9 km/h 14.5 km/h 89% 0 mm
17:10 7.6 °C 5.8 °C 1005 hPa WNW 8 km/h 16.1 km/h 88% 0 mm
17:15 7.6 °C 5.8 °C 1005 hPa WNW 6.4 km/h 14.5 km/h 88% 0 mm
17:20 7.6 °C 5.8 °C 1005 hPa WNW 6.4 km/h 17.7 km/h 88% 0 mm
17:25 7.7 °C 5.8 °C 1005.3 hPa West 12.9 km/h 16.1 km/h 88% 0 mm
17:30 7.7 °C 5.8 °C 1005.3 hPa West 8 km/h 16.1 km/h 88% 0 mm
17:35 7.6 °C 5.9 °C 1005.3 hPa West 9.7 km/h 16.1 km/h 89% 0 mm
17:40 7.5 °C 5.9 °C 1005.3 hPa WNW 9.7 km/h 19.3 km/h 90% 0 mm
17:45 7.4 °C 6 °C 1005.3 hPa WNW 11.3 km/h 19.3 km/h 91% 0 mm
17:50 7.3 °C 6.1 °C 1005.3 hPa West 6.4 km/h 17.7 km/h 92% 0 mm
17:55 7.3 °C 6.1 °C 1005.6 hPa WSW 12.9 km/h 19.3 km/h 92% 0 mm
18:00 7.2 °C 5.9 °C 1005.6 hPa WNW 8 km/h 16.1 km/h 92% 0 mm
18:05 7.2 °C 6.1 °C 1005.6 hPa WNW 12.9 km/h 17.7 km/h 93% 0 mm
18:10 7.2 °C 6.1 °C 1005.6 hPa WSW 11.3 km/h 20.9 km/h 93% 0 mm
18:15 7.1 °C 6.1 °C 1006 hPa WNW 16.1 km/h 16.1 km/h 93% 0 mm
18:20 7.1 °C 6.1 °C 1006 hPa WNW 9.7 km/h 17.7 km/h 93% 0 mm
18:25 7.1 °C 6.1 °C 1006 hPa West 11.3 km/h 17.7 km/h 93% 0 mm
18:30 7.1 °C 6 °C 1006 hPa West 11.3 km/h 17.7 km/h 93% 0 mm
18:35 7.1 °C 6.2 °C 1006.3 hPa West 9.7 km/h 14.5 km/h 94% 0 mm
18:40 7.1 °C 6.2 °C 1006.3 hPa West 4.8 km/h 9.7 km/h 94% 0 mm
18:45 7.1 °C 6.2 °C 1006.3 hPa WNW 4.8 km/h 12.9 km/h 94% 0 mm
18:50 7.1 °C 6.2 °C 1006.3 hPa West 8 km/h 12.9 km/h 94% 0 mm
18:55 7.1 °C 6.3 °C 1006.7 hPa West 6.4 km/h 11.3 km/h 95% 0 mm
19:00 7.1 °C 6.3 °C 1006.7 hPa West 8 km/h 14.5 km/h 95% 0 mm
19:05 7 °C 6.1 °C 1006.7 hPa WNW 9.7 km/h 19.3 km/h 94% 0 mm
19:10 7 °C 6.1 °C 1007 hPa WNW 11.3 km/h 20.9 km/h 94% 0 mm
19:15 7 °C 6.1 °C 1007 hPa WNW 14.5 km/h 22.5 km/h 94% 0 mm
19:21 6.9 °C 6.1 °C 1007 hPa WSW 8 km/h 14.5 km/h 94% 0 mm
19:26 6.9 °C 6.1 °C 1007 hPa WNW 12.9 km/h 14.5 km/h 94% 0 mm
19:31 6.9 °C 6.1 °C 1007 hPa WSW 16.1 km/h 19.3 km/h 94% 0 mm
19:36 6.9 °C 6.1 °C 1007.3 hPa WNW 6.4 km/h 19.3 km/h 94% 0 mm
19:41 6.9 °C 6.1 °C 1007.3 hPa West 8 km/h 14.5 km/h 94% 0 mm
19:46 6.9 °C 5.9 °C 1007.3 hPa WNW 8 km/h 17.7 km/h 93% 0 mm
19:51 6.9 °C 5.9 °C 1007.7 hPa WSW 9.7 km/h 16.1 km/h 93% 0 mm
19:56 6.9 °C 5.9 °C 1007.7 hPa WSW 12.9 km/h 14.5 km/h 93% 0 mm
20:01 6.9 °C 6.1 °C 1007.7 hPa WNW 4.8 km/h 11.3 km/h 94% 0 mm
20:06 7 °C 6.1 °C 1007.7 hPa West 4.8 km/h 12.9 km/h 94% 0 mm
20:11 7 °C 5.9 °C 1007.7 hPa WSW 6.4 km/h 17.7 km/h 93% 0 mm
20:16 7 °C 5.9 °C 1007.7 hPa WNW 12.9 km/h 20.9 km/h 93% 0 mm
20:21 7 °C 5.9 °C 1008 hPa West 4.8 km/h 16.1 km/h 93% 0 mm
20:26 7.1 °C 6 °C 1008 hPa WNW 12.9 km/h 16.1 km/h 93% 0 mm
20:31 7.1 °C 6 °C 1008 hPa WSW 6.4 km/h 14.5 km/h 93% 0 mm
20:36 7 °C 5.9 °C 1008 hPa SW 11.3 km/h 11.3 km/h 93% 0 mm
20:41 7 °C 6.1 °C 1008 hPa West 8 km/h 11.3 km/h 94% 0 mm
20:46 6.9 °C 6.1 °C 1008 hPa West 8 km/h 14.5 km/h 94% 0 mm
20:51 6.9 °C 6.1 °C 1008 hPa West 8 km/h 16.1 km/h 94% 0 mm
20:56 6.9 °C 6.1 °C 1008 hPa WSW 11.3 km/h 12.9 km/h 94% 0 mm
21:01 6.9 °C 6.1 °C 1008 hPa West 9.7 km/h 14.5 km/h 94% 0 mm
21:06 6.9 °C 6.1 °C 1008 hPa WNW 8 km/h 12.9 km/h 94% 0 mm
21:11 6.9 °C 5.9 °C 1008 hPa WNW 9.7 km/h 16.1 km/h 93% 0 mm
21:16 6.9 °C 5.9 °C 1008 hPa West 8 km/h 14.5 km/h 93% 0 mm
21:21 6.9 °C 5.9 °C 1008 hPa West 9.7 km/h 16.1 km/h 93% 0 mm
21:26 6.9 °C 5.9 °C 1008 hPa West 4.8 km/h 17.7 km/h 93% 0 mm
21:31 6.9 °C 5.9 °C 1008 hPa WSW 4.8 km/h 12.9 km/h 93% 0 mm
21:36 6.9 °C 5.9 °C 1008 hPa West 6.4 km/h 9.7 km/h 93% 0 mm
21:41 7 °C 5.9 °C 1008 hPa WSW 11.3 km/h 16.1 km/h 93% 0 mm
21:46 6.9 °C 5.9 °C 1008 hPa WNW 8 km/h 14.5 km/h 93% 0 mm
21:51 7 °C 5.9 °C 1008 hPa West 11.3 km/h 17.7 km/h 93% 0 mm
21:56 7 °C 5.8 °C 1008 hPa WNW 9.7 km/h 20.9 km/h 92% 0 mm
22:01 7 °C 5.8 °C 1008.4 hPa West 4.8 km/h 11.3 km/h 92% 0 mm
22:06 7 °C 5.8 °C 1008.4 hPa WSW 12.9 km/h 17.7 km/h 92% 0 mm
22:11 7.1 °C 5.8 °C 1008 hPa WNW 11.3 km/h 19.3 km/h 92% 0 mm
22:16 7.1 °C 5.8 °C 1008.4 hPa WNW 12.9 km/h 16.1 km/h 92% 0 mm
22:21 7.1 °C 5.8 °C 1008.4 hPa SW 19.3 km/h 19.3 km/h 92% 0 mm
22:26 7.1 °C 5.8 °C 1008.4 hPa West 9.7 km/h 11.3 km/h 92% 0 mm
22:31 7.1 °C 5.8 °C 1008.4 hPa WNW 9.7 km/h 14.5 km/h 92% 0 mm
22:36 7.1 °C 5.9 °C 1008.4 hPa West 16.1 km/h 16.1 km/h 92% 0 mm
22:41 7.1 °C 5.7 °C 1008.4 hPa West 8 km/h 14.5 km/h 91% 0 mm
22:47 7.1 °C 5.7 °C 1008.4 hPa West 14.5 km/h 17.7 km/h 91% 0 mm
22:52 7.2 °C 5.8 °C 1008.4 hPa WSW 11.3 km/h 16.1 km/h 91% 0 mm
22:57 7.2 °C 5.7 °C 1008.4 hPa West 14.5 km/h 20.9 km/h 90% 0 mm
23:02 7.2 °C 5.7 °C 1008.7 hPa West 9.7 km/h 14.5 km/h 90% 0 mm
23:07 7.1 °C 5.7 °C 1008.4 hPa West 16.1 km/h 16.1 km/h 91% 0 mm
23:12 7.1 °C 5.7 °C 1008.7 hPa WNW 25.7 km/h 25.7 km/h 91% 0 mm
23:17 7.1 °C 5.7 °C 1008.4 hPa West 4.8 km/h 14.5 km/h 91% 0 mm
23:22 7.1 °C 5.7 °C 1008.4 hPa West 8 km/h 12.9 km/h 91% 0 mm
23:27 7.1 °C 5.7 °C 1008.4 hPa West 6.4 km/h 12.9 km/h 91% 0 mm
23:32 7.1 °C 5.7 °C 1008.4 hPa West 14.5 km/h 14.5 km/h 91% 0 mm
23:37 7.1 °C 5.7 °C 1008.4 hPa SW 4.8 km/h 16.1 km/h 91% 0 mm
23:42 7.1 °C 5.7 °C 1008.4 hPa West 9.7 km/h 16.1 km/h 91% 0 mm
23:47 7.1 °C 5.7 °C 1008.4 hPa SW 16.1 km/h 16.1 km/h 91% 0 mm
23:52 7.1 °C 5.7 °C 1008.4 hPa WSW 8 km/h 11.3 km/h 91% 0 mm
23:57 7.1 °C 5.7 °C 1008.4 hPa West 9.7 km/h 16.1 km/h 91% 0 mm
Compliments of Weather Underground